C/2007 D1 ( LINEAR )

Japanese version
Home page
Updated on May 7, 2015

---------------------------------------------------------------------

* Profile

Discovery Date February 17, 2007
Magnitude 18.9 mag
Discoverer Lincoln Laboratory Near-Earth Asteroid Research project

* Pictures

* Orbital Elements

Epoch 2007 June 29.0 TT = JDT 2454280.5
T 2007 June 19.46720 TT                                 MPC
q   8.7937387            (2000.0)            P               Q
z  -0.0002188      Peri.  340.15954     -0.88994857     -0.44440922
 +/-0.0000013      Node   171.09853     +0.45349977     -0.83857248
e   1.0019239      Incl.   41.45027     -0.04826487     +0.31511371
From 469 observations 2007 Feb. 17-2013 May 4, mean residual 0".6.

* Finding Charts

* Magnitudes Graph

        m1 = 3.0 + 5 log d + 10.0 log r

---------------------------------------------------------------------

The orbital elements are published on M.P.E.C. 2013-N23.
The charts are made with StellaNavigator Ver.2.0 for Windows (AstroArts / ASCII).
The magnitudes graphs are made with Comet for Windows.

---------------------------------------------------------------------

Copyright(C) Seiichi Yoshida (comet@aerith.net). All rights reserved.